EHI
0 0 0 0 0 0 0 0 0 0 0 0 0 0 0 0 0 0 0 0 0 0 0 0 0 0 0 0 0 0 0 0 0 0 0 0 0 0 0 0 0 0 0 0
0 0 0 0 0 0 0 0 0 0 0 0 0 0 0 0 0 0 0 0 0 0 0 0 0 0 0 0 0 0 0 0 0 0 0 0 0 0 0 0 0 0 0 0
0 0 0 0 0 0 0 0 0 0 0 0 0 0 0 0 0 0 0 0 0 0 0 0 0 0 0 0 0 0 0 0 0 0 0 0 0 0 0 0 0 0 0 0
0 0 0 0 0 0 0 0 0 0 0 0 0 0 0 0 0 0 0 0 0 0 0 0 0 0 0 0 0 0 0 0 0 0 0 0 0 0 0 0 0 0 0 0
0 0 0 0 0 0 0 0 0 0 0 0 0 0 0 0 0 0 0 0 0 0 0 0 0 0 0 0 0 0 0 0 0 0 0 0 0 0 0 0 0 0 0 0
0 0 0 0 0 0 0 0 0 0 0 0 0 0 0 0 0 0 0 0 0 0 0 0 0 0 0 0 0 0 0 0 0 0 0 0 0 0 0 0 0 0 0 0
0 0 0 0 0 0 0 0 0 0 0 0 0 0 0 0 0 0 0 0 0 0 0 0 0 0 0 0 0 0 0 0 0 0 0 0 0 0 0 0 0 0 0 0
0 0 0 0 0 0 0 0 0 0 0 0 0 0 0 0 0 0 0 0 0 0 0 0 0 0 0 0 0 0 0 0 0 0 0 0 0 0 0 0 0 0 0 0
0 0 0 0 0 0 0 0 0 0 0 0 0 0 0 0 0 0 0 0 0 0 0 0 0 0 0 0 0 0 0 0 0 0 0 0 0 0 0 0 0 0 0 0
0 0 0 0 0 0 0 0 0 0 0 0 0 0 0 0 0 0 0 0 0 0 0 0 0 0 0 0 0 0 0 0 0 0 0 0 0 0 0 0 0 0 0 0
0 0 0 0 0 0 0 0 0 0 0 0 0 0 0 0 0 0 0 0 0 0 0 0 0 0 0 0 0 0 0 0 0 0 0 0 0 0 0 0 0 0 0 0
0 0 0 0 0 0 0 0 0 0 0 0 0 0 0 0 0 0 0 0 0 0 0 0 0 0 0 0 0 0 0 0 0 0 0 0 0 0 0 0 0 0 0 0
0 0 0 0 0 0 0 0 0 0 0 0 0 0 0 0 0 0 0 0 0 0 0 0 0 0 0 0 0 0 0 0 0 0 0 0 0 0 0 0 0 0 0 0
0 0 0 0 0 0 0 0 0 0 0 0 0 0 0 0 0 0 0 0 0 0 0 0 0 0 0 0 0 0 0 0 0 0 0 0 0 0 0 0 0 0 0 0
0 0 0 0 0 0 0 0 0 0 0 0 0 0 0 0 0 0 0 0 0 0 0 0 0 0 0 0 0 0 0 0 0 0 0 0 0 0 0 0 0 0 0 0
0 0 0 0 0 0 0 0 0 0 0 0 0 0 0 0 0 0 0 0 0 0 0 0 0 0 0 0 0 0 0 0 0 0 0 0 0 0 0 0 0 0 0 0
0 0 0 0 0 0 0 0 0 0 0 0 0 0 0 0 0 0 0 0 0 0 0 0 0 0 0 0 0 0 0 0 0 0 0 0 0 0 0 0 0 0 0 0
0 0 0 0 0 0 0 0 0 0 0 0 0 0 0 0 0 0 0 0 0 0 0 0 0 0 0 0 0 0 0 0 0 0 0 0 0 0 0 0 0 0 0 0
0 0 0 0 0 0 0 0 0 0 0 0 0 0 0 0 0 0 0 0 0 0 0 0 0 0 0 0 0 0 0 0 0 0 0 0 0 0 0 0 0 0 0 0
0 0 0 0 0 0 0 0 0 0 0 0 0 0 0 0 0 0 0 0 0 0 0 0 0 0 0 0 0 0 0 0 0 0 0 0 0 0 0 0 0 0 0 0
0 0 0 0 0 0 0 0 0 0 0 0 0 0 0 0 0 0 0 0 0 0 0 0 0 0 0 0 0 0 0 0 0 0 0 0 0 0 0 0 0 0 0 0
0 0 0 0 0 0 0 0 0 0 0 0 0 0 0 0 0 0 0 0 0 0 0 0 0 0 0 0 0 0 0 0 0 0 0 0 0 0 0 0 0 0 0 0
0 0 0 0 0 0 0 0 0 0 0 0 0 0 0 0 0 0 0 0 0 0 0 0 0 0 0 0 0 0 0 0 0 0 0 0 0 0 0 0 0 0 0 0
0 0 0 0 0 0 0 0 0 0 0 0 0 0 0 0 0 0 0 0 0 0 0 0 0 0 0 0 0 0 0 0 0 0 0 0 0 0 0 0 0 0 0 0
0 0 0 0 0 0 0 0 0 0 0 0 0 0 0 0 0 0 0 0 0 0 0 0 0 0 0 0 0 0 0 0 0 0 0 0 0 0 0 0 0 0 0 0
0 0 0 0 0 0 0 0 0 0 0 0 0 0 0 0 0 0 0 0 0 0 0 0 0 0 0 0 0 0 0 0 0 0 0 0 0 0 0 0 0 0 0 0
0 0 0 0 0 0 0 0 0 0 0 0 0 0 0 0 0 0 0 0 0 0 0 0 0 0 0 0 0 0 0 0 0 0 0 0 0 0 0 0 0 0 0 0
Wind_Speed
0 1 2 3 3 3 3 2 3 5 5 5 3 4 5 6 7 8 9 9 9 9 9 9 9 9 9 10 10 9 9 9 11 12 11 10 10 10 10 9 10 9 8 8
2 3 4 4 4 3 1 0 2 3 6 4 4 4 6 8 9 9 10 10 10 10 9 10 10 10 10 10 10 9 9 11 11 10 10 10 11 11 10 9 9 8 9 9
1 1 2 2 1 1 2 3 4 5 6 4 6 7 7 8 9 10 11 10 10 10 10 10 10 10 10 11 10 9 10 11 11 10 10 11 11 9 9 10 9 9 9 9
2 2 3 5 2 3 4 5 4 5 5 6 8 8 8 9 8 10 10 10 10 10 10 10 10 10 10 10 10 10 10 11 10 10 11 10 10 10 10 8 8 8 9 9
3 1 4 2 2 2 3 6 4 4 6 7 7 6 7 7 6 8 9 10 10 10 11 10 11 11 10 11 11 11 11 11 11 10 10 10 10 10 9 7 8 8 7 9
3 1 4 5 2 0 1 6 4 4 6 7 5 6 7 6 7 9 9 9 10 10 11 11 12 11 11 12 12 12 12 12 11 10 10 11 10 9 8 7 8 8 8 8
3 2 7 4 1 2 1 7 3 4 6 5 5 8 9 9 9 8 9 11 11 11 11 12 12 11 12 13 13 13 12 12 12 11 11 11 10 9 8 8 8 8 8 8
3 1 6 3 3 4 8 3 2 4 5 6 8 9 9 8 9 10 11 11 11 11 12 12 12 12 13 14 13 13 13 13 12 11 11 10 8 8 7 7 8 8 7 7
8 7 6 4 5 4 4 3 3 4 5 5 6 7 8 7 9 10 11 11 11 12 14 13 12 12 14 15 13 13 13 12 11 11 10 9 8 8 7 6 7 6 6 6
3 6 5 4 3 2 3 4 4 4 5 4 5 7 9 8 9 10 10 12 11 13 14 15 14 13 13 14 13 13 13 11 10 9 9 7 6 6 6 6 6 6 6 6
4 5 3 5 5 4 3 3 3 3 3 4 5 7 7 8 10 10 11 10 11 12 14 16 15 15 14 13 12 12 12 10 10 8 8 7 6 5 6 6 6 6 6 5
7 7 6 6 4 4 3 3 3 3 4 5 5 7 8 8 9 10 12 12 12 13 15 15 15 15 14 13 12 12 10 9 7 6 6 5 5 5 7 8 9 11 9 6
5 4 6 3 2 3 3 2 2 2 4 6 6 6 7 8 8 9 12 13 14 15 15 15 15 15 14 13 13 12 11 9 6 6 5 5 4 4 3 3 4 6 8 8
4 5 3 3 3 2 2 1 1 2 4 5 5 7 8 8 10 12 13 13 14 15 15 14 15 15 14 14 13 12 10 10 7 5 5 4 3 2 2 1 1 1 1 4
6 5 5 3 3 2 1 0 2 4 5 6 5 7 8 10 11 12 13 13 14 14 14 15 15 15 15 14 13 12 9 6 5 4 4 3 2 1 1 1 1 1 1 2
6 4 4 4 4 3 1 1 3 5 5 5 6 8 9 10 11 12 12 12 14 15 15 15 15 15 15 14 12 9 7 10 8 4 3 2 2 1 0 0 1 2 2 3
8 6 6 5 5 4 3 4 4 5 5 6 7 8 9 10 11 12 13 13 13 13 12 13 15 16 14 13 11 8 7 7 9 5 3 2 2 1 1 1 1 1 2 3
8 8 8 7 6 5 4 4 4 4 4 5 7 7 9 10 11 13 14 14 13 12 11 13 15 16 14 13 10 7 6 5 4 4 3 2 2 1 1 1 2 3 3 3
6 8 8 7 6 5 4 4 4 4 4 5 6 7 8 9 10 11 12 12 13 14 15 16 19 15 13 14 13 6 6 5 4 3 3 3 2 2 2 2 2 3 4 4
7 7 7 6 5 5 4 3 3 3 4 4 5 7 8 10 10 11 12 10 8 9 14 16 15 12 12 12 14 6 6 5 5 4 3 3 2 2 2 2 3 3 4 3
9 8 7 7 5 4 4 3 3 3 3 4 4 6 8 9 9 9 10 10 10 13 15 14 11 11 11 11 11 6 6 5 4 4 3 3 3 3 3 3 3 3 3 3
8 8 8 6 5 4 3 3 3 2 3 4 5 5 7 9 10 9 7 6 10 15 12 9 10 14 16 12 7 6 6 5 4 3 3 3 3 3 4 4 3 3 3 3
7 7 7 6 6 4 3 2 2 2 2 3 4 5 6 7 6 7 9 8 10 15 11 8 15 20 18 9 7 7 7 6 5 5 4 3 3 3 3 4 3 3 3 3
7 7 6 5 5 4 4 4 3 2 2 3 3 4 5 5 5 4 6 10 13 14 9 10 16 18 14 7 7 7 7 7 6 5 4 4 3 3 3 3 4 3 3 3
7 6 6 6 6 5 5 4 2 2 2 2 3 4 4 3 4 7 8 9 12 12 9 11 14 15 10 8 8 8 7 7 7 5 5 4 3 3 3 3 3 3 2 2
7 7 7 8 6 5 4 4 3 2 2 2 2 3 4 4 5 6 6 8 11 11 9 8 10 10 9 9 9 8 8 7 7 6 6 5 4 3 3 2 3 2 2 2
5 5 4 4 4 4 5 5 4 3 2 2 2 3 4 4 5 6 7 7 8 8 8 8 8 8 8 8 8 8 8 7 7 7 6 5 5 4 3 3 3 3 2 2
Wind_Direction
346 338 103 77 52 58 82 149 207 261 259 267 276 281 283 287 292 297 296 293 289 285 284 285 285 284 279 277 277 274 271 266 261 259 257 254 253 250 245 237 236 231 232 234
30 42 74 69 37 51 53 300 256 266 268 251 277 286 287 287 289 291 291 290 287 287 286 285 284 283 282 280 278 277 273 271 270 268 264 258 254 251 247 243 239 230 228 232
221 290 11 293 253 240 254 243 232 245 258 289 296 288 280 283 287 288 288 288 288 289 286 284 284 283 281 279 279 277 274 273 271 268 266 263 260 254 247 245 240 232 232 229
117 73 259 251 238 211 235 253 229 241 265 276 268 274 275 275 279 284 288 290 291 291 289 287 286 286 283 283 280 278 277 275 272 268 266 264 260 254 248 244 239 236 235 231
111 195 285 270 224 195 240 276 223 237 270 281 293 316 292 276 276 278 285 288 288 289 291 290 291 290 291 290 286 283 281 278 275 270 267 264 258 255 250 244 243 237 233 228
116 164 255 253 241 201 134 287 238 235 270 285 319 318 287 288 302 299 297 296 296 296 297 297 296 296 295 293 291 289 287 283 278 271 266 263 258 254 251 244 244 242 239 230
139 225 266 253 259 74 218 266 247 239 264 277 259 246 271 298 300 294 294 296 298 299 301 299 300 300 297 296 293 292 292 287 281 275 269 264 258 251 247 245 244 241 241 237
143 201 271 220 145 185 223 243 255 261 266 269 267 274 288 296 297 301 302 301 302 304 303 302 302 302 300 298 296 295 294 290 285 279 275 274 259 250 243 239 240 240 239 240
183 210 237 224 210 215 185 219 252 257 272 278 281 288 295 294 296 298 300 303 305 306 307 307 306 305 303 303 303 301 298 295 289 286 278 270 261 254 246 236 235 235 229 233
232 259 243 233 231 229 205 224 251 264 278 283 285 290 294 294 297 302 303 308 309 311 313 314 314 311 306 306 307 304 301 299 293 288 284 272 261 251 242 235 231 228 225 227
242 267 271 257 233 228 232 249 274 288 284 284 287 290 290 296 302 305 308 309 310 314 316 316 317 315 313 313 312 308 303 299 296 288 284 280 265 249 244 235 224 220 221 216
216 217 194 235 228 200 211 244 267 285 297 297 286 285 294 300 301 305 310 314 317 319 318 318 318 316 317 317 315 310 307 303 298 294 289 281 274 269 246 240 234 227 226 220
204 186 182 216 185 176 197 234 259 272 280 293 295 293 298 300 300 306 313 319 322 320 319 318 318 319 321 322 320 313 310 307 299 297 294 287 278 271 276 260 239 231 225 220
175 137 165 197 195 184 187 221 277 296 292 290 289 298 303 302 307 316 320 321 320 319 319 320 321 323 325 324 322 318 314 310 309 302 303 298 288 278 260 250 236 174 191 208
186 179 185 178 156 152 154 201 299 301 301 302 298 303 310 314 316 317 317 319 321 322 324 325 326 327 327 326 324 322 319 313 311 310 311 307 300 288 264 234 204 143 117 90
175 165 159 163 180 186 197 247 270 284 292 295 302 308 311 311 311 314 318 324 327 326 326 327 329 328 327 327 326 324 323 325 333 328 326 327 323 313 272 148 138 145 144 134
149 178 191 200 207 208 220 236 248 266 283 294 300 307 314 318 322 326 328 328 324 319 321 328 330 329 330 331 329 327 328 330 340 342 338 338 344 4 69 104 117 129 136 149
175 178 176 178 186 204 231 248 258 270 277 288 303 314 321 324 324 324 325 325 326 328 335 337 334 332 333 335 334 331 332 334 338 342 346 358 5 22 55 77 94 100 101 113
161 162 168 174 177 185 209 234 250 265 283 300 312 314 313 314 316 320 324 327 334 338 339 336 331 333 335 338 340 334 341 346 350 356 2 15 29 44 61 74 85 95 105 112
159 161 167 175 179 184 207 227 242 266 289 304 311 317 322 325 326 327 328 326 330 333 329 329 331 335 337 336 341 338 345 353 1 4 10 24 37 53 68 81 90 98 106 118
169 169 174 181 190 201 209 210 216 259 291 305 312 315 316 319 324 328 330 331 334 337 334 330 335 339 337 334 335 342 350 358 5 7 14 26 39 56 69 81 89 97 106 115
175 175 182 183 188 207 218 208 212 249 289 306 314 318 323 327 330 329 320 319 326 333 334 335 341 340 341 339 346 353 356 0 6 13 24 38 51 63 69 77 85 96 105 109
174 176 179 186 192 203 211 211 218 237 272 297 311 319 320 317 319 326 330 329 331 332 333 339 340 343 346 352 356 0 2 4 7 13 25 45 59 70 76 78 82 90 98 102
174 178 182 178 165 176 205 223 224 236 260 284 295 307 315 320 319 311 312 318 329 332 336 340 344 348 352 360 360 2 5 6 7 10 22 40 58 67 75 79 82 85 90 94
176 175 170 168 182 202 208 202 207 239 269 291 303 316 320 312 308 316 323 329 336 341 343 345 351 354 -0 1 2 3 5 6 6 9 20 32 48 60 65 69 77 84 84 79
179 185 192 193 193 188 178 174 189 218 243 279 299 315 326 325 322 324 330 337 344 347 351 352 355 358 1 1 2 2 2 2 8 13 16 20 32 47 59 68 78 75 73 70
187 182 183 192 192 178 169 170 181 199 212 232 276 312 329 335 339 342 345 348 351 355 356 356 359 2 2 2 2 2 2 4 6 7 9 14 19 26 41 59 64 71 75 73